Overview Statistics Trail Chart Weather Telemetry Raw packets
 

This is the latest recevied weather packets stored in our database for station/object N1YZ. If no packets are shown the sender has not sent any weather packets the latest 10 day(s).

<< 15 16 17 18 19 20 21 >>
Time Temp. Humidity Pressure Rain* Wind** Luminosity Snow
1788547641 32.78° C 61% 1034.7 hPa 0 mm - 643 W/m² -
1788547337 32.78° C 62% 1034.6 hPa 0 mm - 113 W/m² -
1788547032 33.89° C 61% 1035 hPa 0 mm - 68 W/m² -
1788546727 34.44° C 59% 1035.1 hPa 0 mm - 67 W/m² -
1788546423 32.78° C 59% 1035.1 hPa 0 mm - 688 W/m² -
1788546117 32.22° C 67% 1035.3 hPa 0 mm - 60 W/m² -
1788545813 33.33° C 65% 1035.2 hPa 0 mm - 63 W/m² -
1788545512 33.33° C 63% 1035.2 hPa 0 mm - 116 W/m² -
1788545208 32.22° C 66% 1035.3 hPa 0 mm - 114 W/m² -
1788544903 32.78° C 65% 1035.4 hPa 0 mm - 96 W/m² -
1788544626 32.78° C 64% 1035.5 hPa 0 mm - 116 W/m² -
1788544301 33.33° C 63% 1035.6 hPa 0 mm - 414 W/m² -
1788543996 33.33° C 62% 1035.6 hPa 0 mm - 117 W/m² -
1788543692 33.89° C 60% 1035.9 hPa 0 mm - 79 W/m² -
1788543387 33.33° C 60% 1035.8 hPa 0 mm - 100 W/m² -
1788543083 32.78° C 62% 1036 hPa 0 mm - 124 W/m² -
1788542779 32.78° C 63% 1035.9 hPa 0 mm - 114 W/m² -
1788542478 32.22° C 63% 1036 hPa 0 mm - 162 W/m² -
1788542173 32.22° C 66% 1036.1 hPa 0 mm - 112 W/m² -
1788541869 32.78° C 64% 1036.2 hPa 0 mm - 85 W/m² -
1788541564 32.78° C 61% 1036.3 hPa 0 mm - 153 W/m² -
1788541261 32.78° C 63% 1036.1 hPa 0 mm - 143 W/m² -
1788540959 33.33° C 61% 1036 hPa 0 mm - 106 W/m² -
1788540658 33.33° C 63% 1036.1 hPa 0 mm - 77 W/m² -
1788540353 32.78° C 64% 1036.1 hPa 0 mm - 79 W/m² -

* Rain latest hour (hover to see other rain measurements)
** Current wind speed in m/s (hover to see current wind gust speed)